Regional Weather Roundup
Issued by NWS

Home | Current Version | Previous Version | Graphics & Text | Print | Product List | Glossary On
Versions: 1 2 3 4 5 6 7 8 9 10 11 12 13 14 15 16 17 18 19 20 21 22 23 24 25 26 27 28 29 30 31 32 33 34 35 36 37 38 39 40 41 42 43 44 45 46 47 48 49 50
079
ASUS44 KJAN 301103
RWRMS

MISSISSIPPI HOURLY WEATHER ROUNDUP
NATIONAL WEATHER SERVICE JACKSON MS
600 AM CDT MON MAR 30 2015

NOTE: "FAIR: INDICATES FEW OR NO CLOUDS BELOW 12,000 FEET WITH NO
SIGNIFICANT WEATHER AND/OR OBSTRUCTIONS TO VISIBILITY.

MSZ001>002-007>008-010>013-018>021-025>028-034>036-301200-
NORTHWEST MISSISSIPPI

CITY           SKY/WX    TMP DP  RH WIND       PRES   REMARKS
CLARKSDALE       N/A     55  55 100 N5        30.16R
CLEVELAND      FAIR      58  56  92 N5        30.15R
GREENWOOD      CLOUDY    65  57  75 W6        30.13R
GREENVILLE     PTCLDY    62  55  77 NW6       30.15R
OLIVE BRANCH   CLEAR     46 N/A N/A N7        30.15R
OXFORD         FAIR      55  54  94 N7        30.15R
TUNICA         SUNNY     50  48  93 N7        30.16R
$$

MSZ003>006-009-014>017-022>024-029>033-037>039-301200-
NORTHEAST MISSISSIPPI

CITY           SKY/WX    TMP DP  RH WIND       PRES   REMARKS
COLUMBUS AFB   LGT RAIN  62  60  95 NW7       30.12R
CORINTH        FAIR      54  52  94 NW6       30.13R
GOLDN TRIANGLE CLOUDY    63  57  82 W9        30.11R
STARKVILLE     CLOUDY    61  59  94 W6        30.12R THUNDER
TUPELO         MOCLDY    58  55  90 N5        30.13R
$$

MSZ040-058-301200-
CENTRAL MISSISSIPPI

CITY           SKY/WX    TMP DP  RH WIND       PRES   REMARKS
JACKSON INTL   MOCLDY    65  60  84 SW12G21   30.17R
JACKSON HAWKNS CLOUDY    64  60  87 W12       30.16R
MERIDIAN KEY   PTCLDY    61  58  90 SW7       30.14R
MERIDIAN NAS   NOT AVBL
RAYMOND        FAIR      64  59  82 W7        30.16R
VICKSBURG      PTCLDY    63  59  87 SW3       30.18R
$$

MSZ059>079-301200-
SOUTH MISSISSIPPI

CITY           SKY/WX    TMP DP  RH WIND       PRES   REMARKS
BROOKHAVEN       N/A     59  59 100 S5        30.19F
HATTIESBURG    FOG       59  58  96 CALM      30.21R VSB 1/4
MCCOMB         MOCLDY    58  56  93 NW3       30.20R
NATCHEZ        CLEAR     61  57  88 S5        30.18S
PINE BELT      MOCLDY    57  55  94 S3        30.20R VSB 1
$$

MSZ080>082-301200-
COASTAL MISSISSIPPI

CITY           SKY/WX    TMP DP  RH WIND       PRES   REMARKS
BILOXI         MOCLDY    64  64 100 CALM      30.19R
PASCAGOULA     MOCLDY    65  63  93 S5        30.20R
GULFPORT       MOCLDY    62  60  93 CALM      30.19R
$$



USA.gov is the U.S. government's official web portal to all federal, state and local government web resources and services.